Tracking 28794 objects as of 21-Apr-2024
HD Live streaming from Space Station
objects crossing your sky now

GAMA-ALPHA

Track GAMA-ALPHA now!
10-day predictions


NORAD ID: 55084
Int'l Code: 2023-001CD
Perigee: 493.7 km
Apogee: 510.8 km
Inclination: 97.4 °
Period: 94.5 minutes
Semi major axis: 6873 km
RCS: Unknown
Launch date: January 3, 2023
Source: Lithuania (LTU)
Launch site: AIR FORCE EASTERN TEST RANGE (AFETR)
Your satellite tracking list
Your tracking list is empty




NASA's NSSDC Master Catalog

Two Line Element Set (TLE):
1 55084U 23001CD  24112.71857226  .00026681  00000-0  11136-2 0  9993
2 55084  97.4312 173.6139 0012455   9.8060 350.3418 15.23562339 72080
Source of the keplerian elements: AFSPC